Home > Weather > Melsungen > Past weeks

Flag for Germany Past Weather in Melsungen, Hesse, Germany — Yesterday and Last 2 Weeks

Now
71 °F

Partly sunny.


Feels Like: 73 °F
Forecast: 58 / 75 °F
Wind: 2 mph from Northeast

Location: Fritzlar

Current Time: Jul 26, 2016 at 12:31:41 PM

Latest Report: Jul 26, 2016 at 10:00 AM


Visibility: 8 mi

Pressure: 30.12 "Hg

Humidity: 75%

Dew Point: 63 °F

Location of MelsungenLocation

Past Weather in Melsungen — Graph

°F

Melsungen Temperature Yesterday

Maximum temperature yesterday: 80 °F (at 6:00 PM)
Minimum temperature yesterday: 62 °F (at 4:00 AM)
Average temperature yesterday: 71 °F

High & Low Weather Summary for the Past Weeks

 TemperatureHumidityPressure
High90 °F (Jul 20, 6:00 PM)98% (Jul 18, 3:00 AM)30.31 "Hg (Jul 18, 3:00 AM)
Low47 °F (Jul 16, 3:00 AM)26% (Jul 20, 6:00 PM)29.81 "Hg (Jul 11, 10:00 AM)
Average67 °F72%30.07 "Hg
* Reported Jul 11 10:00 AM — Jul 26 10:00 AM, Melsungen, Weather by CustomWeather, © 2016

Note: Actual official high and low records may vary slightly from our data, if they occured in-between our weather recording intervals... More about our weather records

Advertising

Melsungen Weather History for the Previous 24 Hours

Scroll right to see more
 ConditionsComfort  
Time TempWeatherWind HumidityBarometerVisibility
10:00 AM
Tue, Jul 26
71 °FPartly sunny.2 mph75%30.12 "Hg8 mi
9:00 AM69 °FScattered clouds.1 mph82%30.13 "Hg7 mi
7:00 AM62 °FOvercast.2 mph93%30.13 "Hg8 mi
6:00 AM62 °FOvercast.N/A94%30.12 "Hg8 mi
4:00 AM63 °FPassing clouds.2 mph93%30.11 "Hg8 mi
3:00 AM64 °FPassing clouds.3 mph91%30.11 "Hg9 mi
1:00 AM65 °FPassing clouds.3 mph86%30.10 "Hg9 mi
12:00 AM68 °FPassing clouds.1 mph79%30.11 "Hg10 mi
10:00 PM
Mon, Jul 25
73 °FPassing clouds.3 mph64%30.09 "Hg11 mi
9:00 PM77 °FPartly sunny.3 mph57%30.06 "Hg11 mi
7:00 PM80 °FPartly sunny.3 mph52%30.03 "Hg11 mi
6:00 PM80 °FOvercast.1 mph51%30.04 "Hg11 mi
4:00 PM76 °FOvercast.2 mph68%30.06 "Hg11 mi
3:00 PM76 °FOvercast.5 mph62%30.05 "Hg9 mi
1:00 PM78 °FOvercast.1 mph56%30.05 "Hg12 mi
12:00 PM78 °FOvercast.2 mph58%30.06 "Hg12 mi
Weather by CustomWeather, © 2016

See weather overviewHow to use our weather pages